Location: Claflin County Park
(44.8478°N, 87.5507°W)
Time: 06:02:15
(UTC+00:00)

IRAS Rocket - Pass Details

Date: 10 December 2025
Orbit: 846 x 875 km, 100.1° (Epoch: 13 January)

Event Time Altitude Azimuth Distance (km) Brightness Sun altitude
Rises 00:35:35 0° 168° (SSE) 3,406 7.3 -25.1°
Reaches altitude 10° 00:37:58 10° 170° (S) 2,471 6.6 -25.5°
Maximum altitude 00:43:25 72° 255° (WSW) 893 4.4 -26.4°
Drops below altitude 10° 00:48:54 10° 340° (NNW) 2,478 6.8 -27.4°
Sets 00:51:17 0° 343° (NNW) 3,417 7.5 -27.8°
